Temperature
19 19 20 19 19 19 19 19 19 19 19 19 19 19 19 19 19 19 19 19 19 19 19 19 19 19 19 19 19 19 19 19 19 19 19 19 19 19 19 19 18 18 18
20 19 20 19 19 19 19 19 19 19 19 19 19 19 19 19 19 19 19 19 19 19 19 19 19 19 19 19 19 19 19 19 19 19 19 19 19 19 19 19 18 18 18
20 19 20 19 19 19 19 19 19 19 19 19 19 19 19 19 19 18 19 19 19 19 19 19 19 19 19 19 19 19 19 19 19 19 19 18 18 19 19 19 19 18 18
20 19 19 20 19 19 19 19 19 19 19 19 19 19 19 19 19 18 18 18 18 18 18 18 18 18 19 18 18 18 18 19 19 19 18 18 18 18 19 18 18 18 18
19 19 19 20 20 20 19 19 19 19 19 19 19 18 18 18 18 18 18 18 18 18 18 18 18 18 18 18 18 18 18 18 19 18 18 18 18 18 18 18 18 18 18
19 19 19 20 20 20 20 20 19 19 19 19 19 19 19 19 19 18 18 18 18 18 18 18 18 18 18 18 18 18 18 18 18 17 17 17 18 18 18 18 18 18 18
20 19 19 20 20 20 20 20 19 19 19 19 19 19 19 19 19 19 18 18 18 18 18 18 18 18 18 18 18 18 18 18 17 17 17 17 18 18 18 18 18 18 18
20 19 19 20 20 20 20 20 19 19 19 19 19 19 19 19 19 19 19 18 18 18 18 18 18 18 18 18 18 18 18 18 18 18 17 17 18 18 18 18 18 18 18
20 19 19 19 19 20 20 19 19 19 19 19 19 19 19 19 19 18 18 18 18 18 18 18 18 18 18 18 18 18 18 18 17 17 17 17 18 18 18 18 18 18 18
19 19 20 19 19 18 18 19 19 19 19 19 19 19 19 19 18 18 18 18 18 18 18 18 18 18 18 18 18 18 18 18 17 17 18 17 18 18 18 18 18 18 18
19 19 19 19 19 18 18 18 18 19 19 18 18 19 19 18 17 18 17 18 18 18 18 18 18 18 18 18 18 18 18 18 18 18 17 17 18 18 18 18 18 18 18
19 19 19 19 19 18 18 18 18 18 18 18 18 18 18 18 17 17 17 18 18 18 18 18 18 18 18 17 18 18 18 18 18 18 17 18 18 18 18 18 18 18 18
19 19 19 19 19 19 18 18 18 18 18 18 18 18 18 18 17 17 17 17 17 18 17 17 18 17 18 18 18 18 18 18 18 18 17 18 17 17 18 18 18 18 18
18 18 19 19 19 18 18 18 18 18 18 18 18 18 18 18 18 18 18 18 17 17 17 17 17 18 18 18 18 19 18 18 18 18 17 18 17 17 17 18 18 18 18
17 18 18 19 19 19 19 18 18 18 18 18 18 18 18 18 18 18 18 17 17 17 17 17 18 18 18 19 19 19 19 18 18 18 17 18 17 17 17 17 17 17 17
17 17 17 18 18 18 18 18 18 18 18 18 18 18 18 18 18 18 18 18 18 17 17 17 18 18 18 18 18 18 19 19 18 17 17 17 17 17 17 17 17 17 17
16 16 17 17 18 18 18 18 18 18 18 18 18 18 18 18 18 18 18 18 18 17 17 17 18 18 18 18 18 18 19 18 18 18 17 17 17 17 17 17 17 17 17
15 16 16 17 18 18 18 18 18 18 18 18 18 18 18 18 18 18 18 17 17 17 17 17 17 17 18 18 18 18 18 18 18 18 18 17 17 17 17 17 17 17 17
15 15 16 16 17 17 18 18 18 18 18 18 18 18 18 18 18 18 18 17 17 17 17 17 17 17 18 18 18 18 18 18 18 18 18 18 17 17 17 17 17 17 17
14 15 15 16 16 17 17 17 18 18 18 18 18 18 18 18 18 18 18 18 17 17 17 17 17 17 17 17 18 18 18 18 18 18 18 18 18 17 17 17 17 17 17
14 14 14 15 15 15 16 16 17 17 17 17 17 18 18 18 18 18 18 18 18 17 17 17 17 17 17 17 17 18 18 18 18 18 18 18 18 17 17 17 17 17 17
13 13 14 14 14 14 15 15 16 16 17 17 17 17 17 17 18 18 18 18 17 17 17 17 17 17 17 17 17 17 17 18 17 18 18 17 18 18 17 17 17 17 17
12 12 12 13 13 13 14 14 15 15 15 16 16 16 17 17 17 17 17 17 17 17 17 17 17 17 17 17 17 17 17 18 18 18 18 17 17 18 18 18 18 17 17
12 12 12 12 12 13 13 13 14 14 14 15 15 16 16 16 16 17 17 17 17 17 17 17 17 17 17 16 16 16 17 17 17 17 17 18 18 17 17 17 17 18 17
11 12 12 12 12 12 13 13 13 14 14 14 15 15 15 16 16 16 16 16 16 16 17 16 16 16 16 16 16 16 16 16 16 17 17 17 17 17 17 17 17 17 17
11 12 12 12 12 12 13 13 13 13 14 14 14 15 15 15 16 16 16 16 16 16 16 16 16 16 16 16 16 16 16 16 16 16 16 16 16 17 16 16 17 17 16
Wind_Speed
12 14 16 13 13 12 11 11 10 10 10 9 9 8 8 7 7 6 5 5 4 3 3 3 4 4 4 4 4 5 5 7 7 8 8 8 8 7 7 6 4 7 8
15 16 16 14 13 12 12 11 10 10 9 9 8 7 6 6 5 4 4 4 3 3 3 3 4 4 5 5 5 5 6 7 7 8 7 8 8 7 6 5 5 7 7
16 16 16 14 13 12 11 10 10 9 9 8 8 7 6 5 4 4 3 3 3 3 3 3 4 5 5 5 5 5 6 7 7 5 2 6 8 7 6 6 6 6 6
15 15 15 15 13 12 11 10 9 9 8 8 7 7 7 6 5 4 3 3 2 2 2 3 4 4 5 5 5 5 6 6 6 2 2 6 7 8 6 6 6 5 5
13 13 14 15 13 12 11 9 9 9 8 8 7 7 7 6 6 5 4 3 3 2 2 3 3 4 4 5 5 5 6 7 4 1 6 6 7 7 6 6 6 5 5
12 12 14 13 13 12 11 10 9 9 8 8 7 7 6 6 6 5 5 4 3 3 3 3 3 4 4 4 4 4 6 6 5 5 5 4 6 6 5 5 5 6 6
11 11 13 12 12 11 10 10 10 9 9 9 8 8 7 6 6 6 5 5 4 4 3 3 3 4 4 4 4 4 5 3 3 4 4 4 6 5 4 4 5 5 6
9 9 11 12 10 10 10 10 10 9 10 10 9 9 8 7 6 6 6 5 5 4 4 4 4 4 4 4 4 4 3 4 5 4 4 5 6 3 3 3 4 5 6
7 7 8 10 12 11 9 9 10 10 10 11 10 10 9 8 7 7 6 6 5 5 5 5 5 5 5 4 4 3 3 1 2 4 4 6 6 3 3 3 3 4 5
5 6 6 7 7 9 11 12 10 10 11 11 11 11 10 9 9 8 9 8 6 5 5 5 5 5 5 4 4 3 3 6 3 4 3 7 5 3 3 2 2 3 4
3 4 5 6 6 7 7 8 11 12 12 12 13 13 12 11 11 11 9 8 6 6 5 5 5 6 6 6 5 3 6 5 4 2 3 7 3 3 3 2 2 2 3
2 3 5 6 7 8 8 8 9 10 11 12 12 13 12 10 8 7 10 8 7 6 6 6 5 7 9 8 9 8 6 5 4 2 5 6 2 2 2 2 2 2 2
7 6 6 7 8 8 8 9 8 8 8 10 11 11 11 9 8 8 8 11 11 10 10 9 10 9 8 5 5 7 4 4 3 2 5 5 2 2 3 3 2 2 2
10 10 9 8 8 9 9 9 9 8 8 8 10 12 10 7 8 8 7 8 7 8 7 7 7 7 8 8 8 8 7 5 3 1 6 6 2 1 3 3 3 3 2
12 11 11 10 9 8 8 8 9 9 9 10 9 10 11 8 8 8 8 7 8 8 8 7 8 8 7 7 7 7 7 6 4 2 5 6 3 1 2 3 4 5 4
11 12 11 10 9 9 6 6 6 8 9 11 10 11 12 10 9 8 8 8 8 8 8 8 9 7 7 7 7 7 6 6 5 4 3 6 6 3 1 1 3 4 5
11 10 10 10 9 9 8 7 7 7 9 9 10 12 12 12 12 10 9 8 8 10 10 8 9 7 7 7 8 8 7 6 6 6 4 3 5 7 4 2 2 2 4
11 11 10 9 10 10 8 7 6 7 8 8 9 10 12 12 13 10 9 9 10 9 8 7 7 8 8 8 8 7 7 6 8 6 5 5 4 3 7 5 2 2 2
11 11 11 10 10 10 10 8 7 7 7 8 9 9 11 12 12 10 9 9 10 8 7 7 8 8 8 7 7 6 7 7 7 7 7 6 5 5 4 8 6 4 3
11 11 11 10 10 10 8 8 7 6 6 7 8 9 11 11 12 11 8 10 9 7 7 7 7 7 7 6 7 7 7 7 7 7 7 6 6 6 5 5 6 7 5
12 12 11 11 10 9 7 7 7 6 6 6 7 10 12 13 13 11 9 9 9 8 9 9 7 8 8 7 7 7 8 9 9 7 8 7 7 7 7 7 6 5 7
13 13 12 11 11 10 8 8 7 8 8 7 7 8 12 14 14 13 13 11 10 9 9 9 8 6 5 6 6 6 7 8 8 9 8 8 9 8 9 9 8 7 6
14 13 11 12 11 10 10 8 7 7 7 6 6 6 8 11 13 14 14 13 12 11 9 10 10 10 7 6 6 5 5 7 6 8 11 10 10 8 8 9 9 10 9
14 13 12 11 11 10 9 8 8 7 8 7 6 6 6 7 9 12 12 12 12 11 11 11 11 10 9 7 6 6 5 3 4 4 7 9 9 9 10 8 9 10 10
14 12 11 10 10 9 8 8 8 7 7 6 6 6 5 4 5 7 9 10 11 10 11 12 12 12 11 10 8 5 6 3 6 4 4 5 6 8 8 9 8 8 9
14 12 11 10 10 9 8 7 7 7 7 6 6 4 3 2 3 4 6 7 9 9 10 11 12 13 12 11 10 8 6 5 5 5 5 5 4 4 5 6 7 7 8
Wind_Direction
153 150 144 149 144 138 133 128 126 128 132 139 145 152 159 165 171 175 181 187 188 189 186 170 158 145 134 125 119 113 105 97 94 91 92 92 91 91 95 103 130 111 109
149 148 145 149 146 143 137 134 133 133 134 137 141 147 151 154 159 167 174 179 182 186 179 166 161 154 144 137 130 122 110 101 93 91 101 103 91 86 91 83 45 89 110
147 146 150 151 148 145 141 139 138 138 137 139 142 145 148 149 152 155 159 162 167 169 165 160 160 153 147 139 131 124 115 105 96 97 148 101 97 84 81 88 89 99 109
148 150 152 149 152 150 148 147 145 143 143 143 145 146 146 146 148 149 148 148 151 155 157 154 155 155 148 137 133 129 123 114 108 204 102 80 88 84 78 83 93 99 109
151 152 145 153 156 156 155 155 150 148 148 148 148 148 148 146 144 141 137 134 134 138 144 143 145 144 137 130 130 129 125 121 135 192 75 73 77 80 76 79 87 93 96
156 156 151 160 161 162 163 162 157 158 157 157 155 151 149 146 146 144 141 136 130 126 127 128 133 134 130 125 125 124 124 136 181 97 89 85 85 81 71 71 81 90 91
161 162 158 165 169 171 172 171 170 170 169 169 168 164 163 159 157 154 148 140 135 128 121 120 131 130 128 126 120 111 119 163 123 108 106 89 81 80 76 76 75 86 92
166 170 162 167 180 182 183 184 183 182 181 181 180 177 176 174 169 163 157 148 141 133 126 119 127 130 128 126 119 112 136 226 133 116 103 92 79 88 81 83 83 88 95
173 185 187 182 188 193 200 202 198 195 193 191 188 186 185 183 181 176 172 164 155 146 137 127 129 132 132 133 130 121 120 300 153 122 115 92 89 87 81 76 81 91 96
189 205 213 209 208 207 204 204 212 212 208 202 197 196 194 193 195 192 193 174 172 165 154 141 136 136 135 134 135 136 167 220 185 148 117 94 92 88 85 82 86 96 100
230 242 241 244 237 243 243 214 216 222 220 214 207 202 205 212 203 197 195 161 184 182 173 163 155 147 155 152 146 170 217 211 164 168 94 89 103 109 106 104 106 114 111
312 281 273 267 259 252 251 247 238 235 224 223 222 209 214 222 216 216 151 177 198 197 191 185 176 182 210 185 168 198 205 192 188 171 105 102 130 151 141 133 123 126 127
360 347 316 294 278 268 257 256 252 249 243 238 236 227 224 222 217 220 200 189 200 202 206 180 202 209 210 202 202 197 194 207 194 167 112 110 137 179 172 166 161 155 153
14 5 352 333 306 283 269 261 257 253 249 244 241 239 230 227 231 223 221 214 202 204 213 216 222 208 218 203 205 207 187 207 199 155 107 109 125 180 197 192 191 188 183
11 2 356 348 337 320 297 279 270 266 263 258 249 249 236 230 235 231 225 218 221 215 204 217 223 212 220 220 210 216 205 193 190 179 126 125 126 142 206 207 202 198 195
7 359 352 349 346 331 313 294 283 282 276 273 264 255 250 240 240 238 236 225 224 220 218 218 218 210 215 216 214 211 223 207 202 188 167 148 153 150 159 219 218 208 199
359 353 349 343 346 337 322 309 295 287 287 281 270 265 259 248 246 241 241 233 223 218 218 219 217 216 214 210 217 223 219 223 214 204 184 183 161 159 166 186 204 207 200
349 344 342 340 338 335 324 305 290 282 275 273 276 274 269 260 251 248 241 240 234 225 221 212 218 213 212 215 219 215 217 209 224 220 209 198 189 168 164 162 174 185 198
339 335 333 334 331 327 320 304 286 274 265 263 264 265 267 267 260 250 244 242 235 226 224 219 211 216 219 221 227 223 226 213 212 215 222 213 188 202 179 151 172 173 175
331 328 327 326 324 322 317 309 296 282 268 256 250 247 250 257 257 252 247 244 236 221 216 218 216 216 227 227 234 229 226 221 222 218 226 223 216 199 201 181 183 168 169
331 326 323 321 322 320 316 313 310 300 289 271 254 243 238 240 242 241 240 239 230 221 213 209 208 215 219 224 233 231 228 226 229 215 220 224 219 209 210 204 205 185 169
331 325 321 321 319 315 309 304 294 292 284 277 271 255 241 235 233 233 233 232 226 220 215 209 198 207 215 219 225 232 233 224 225 229 224 227 232 209 219 211 205 196 197
332 329 323 321 315 311 308 301 298 292 283 275 269 260 249 240 234 230 232 230 225 218 217 208 202 202 203 211 229 225 227 228 219 214 220 223 229 228 221 219 214 200 198
336 330 325 321 317 314 310 301 297 290 287 288 287 276 265 251 241 232 230 229 227 221 217 215 208 207 200 200 213 233 243 262 224 212 210 222 222 224 229 221 225 220 205
342 336 330 326 322 319 314 307 298 291 289 290 287 279 265 251 245 237 229 226 224 219 218 217 210 207 205 203 197 200 219 242 248 241 224 209 212 220 225 227 220 222 216
353 350 343 338 334 335 330 322 316 313 309 307 303 296 282 257 241 229 223 221 218 215 215 215 213 209 209 206 201 197 193 192 209 222 232 232 232 225 226 228 235 222 220
Height
1547 1549 1549 1551 1553 1554 1556 1557 1558 1559 1560 1560 1561 1562 1562 1563 1563 1564 1564 1564 1564 1565 1565 1565 1565 1565 1565 1565 1565 1565 1565 1564 1564 1563 1563 1562 1561 1561 1560 1560 1560 1561 1560
1547 1550 1551 1553 1554 1556 1557 1558 1559 1560 1560 1561 1562 1562 1563 1563 1563 1564 1564 1565 1565 1565 1565 1566 1566 1566 1566 1566 1566 1566 1566 1566 1565 1565 1565 1564 1563 1562 1562 1562 1561 1562 1561
1549 1551 1552 1554 1556 1557 1558 1559 1560 1561 1561 1562 1562 1563 1563 1564 1564 1564 1565 1565 1565 1566 1566 1566 1566 1566 1567 1567 1567 1567 1567 1567 1567 1567 1566 1567 1565 1564 1564 1563 1563 1562 1562
1551 1553 1554 1555 1557 1558 1559 1560 1561 1562 1562 1562 1563 1563 1563 1564 1564 1565 1565 1565 1566 1566 1566 1566 1567 1567 1568 1568 1568 1568 1568 1568 1568 1568 1570 1569 1568 1566 1565 1565 1564 1564 1564
1553 1555 1555 1557 1558 1559 1560 1561 1562 1562 1562 1563 1563 1563 1564 1564 1565 1565 1565 1565 1566 1566 1566 1567 1567 1568 1568 1568 1569 1569 1569 1569 1569 1570 1570 1569 1568 1567 1567 1567 1566 1565 1565
1554 1556 1556 1558 1559 1560 1561 1562 1562 1563 1563 1563 1563 1564 1564 1565 1565 1565 1565 1565 1566 1566 1566 1567 1567 1568 1568 1569 1569 1570 1570 1570 1570 1571 1570 1570 1569 1568 1568 1568 1567 1567 1566
1556 1558 1558 1558 1560 1560 1561 1562 1562 1563 1563 1563 1563 1564 1564 1565 1565 1565 1565 1565 1565 1566 1566 1566 1567 1568 1568 1569 1570 1570 1570 1571 1572 1571 1571 1571 1570 1569 1569 1569 1568 1568 1568
1558 1559 1560 1558 1560 1561 1561 1562 1562 1562 1563 1563 1563 1564 1564 1564 1565 1565 1565 1565 1565 1565 1566 1566 1567 1567 1568 1569 1570 1571 1571 1571 1573 1573 1572 1572 1570 1570 1570 1570 1570 1569 1569
1559 1560 1561 1561 1560 1560 1561 1561 1562 1562 1562 1562 1563 1563 1564 1564 1564 1564 1564 1564 1564 1565 1565 1566 1566 1567 1568 1569 1570 1570 1571 1572 1574 1574 1574 1573 1571 1570 1570 1570 1570 1570 1570
1560 1561 1562 1562 1562 1562 1561 1560 1561 1561 1561 1561 1562 1562 1563 1563 1563 1563 1563 1563 1564 1564 1565 1565 1566 1566 1567 1568 1569 1570 1571 1572 1574 1574 1574 1573 1571 1571 1570 1570 1570 1570 1570
1560 1561 1562 1562 1562 1561 1561 1560 1559 1559 1559 1560 1560 1560 1561 1562 1563 1563 1563 1562 1563 1563 1564 1564 1565 1566 1567 1568 1569 1570 1571 1574 1574 1574 1574 1572 1571 1570 1570 1570 1570 1570 1571
1560 1560 1560 1560 1560 1560 1559 1559 1558 1558 1558 1558 1559 1559 1559 1561 1562 1562 1561 1561 1561 1562 1562 1563 1564 1565 1567 1569 1569 1570 1572 1573 1573 1574 1573 1571 1570 1570 1569 1569 1570 1570 1570
1559 1558 1558 1558 1558 1558 1557 1557 1557 1556 1556 1556 1556 1557 1557 1558 1559 1560 1561 1560 1560 1561 1563 1562 1564 1566 1568 1569 1570 1571 1571 1573 1573 1573 1572 1570 1569 1568 1568 1568 1569 1569 1570
1557 1556 1555 1555 1555 1555 1555 1555 1554 1554 1554 1554 1554 1554 1555 1555 1557 1558 1559 1560 1560 1560 1561 1563 1564 1566 1567 1568 1569 1570 1571 1572 1572 1572 1570 1568 1568 1567 1567 1567 1568 1568 1569
1555 1554 1553 1552 1552 1552 1551 1551 1551 1552 1551 1552 1551 1552 1552 1552 1554 1556 1557 1557 1558 1559 1559 1560 1562 1564 1565 1567 1568 1569 1570 1571 1571 1571 1570 1567 1567 1566 1566 1566 1566 1567 1568
1554 1553 1551 1550 1549 1548 1548 1548 1547 1548 1548 1548 1548 1549 1550 1550 1550 1552 1553 1554 1556 1557 1558 1559 1560 1561 1563 1564 1566 1567 1568 1569 1570 1569 1569 1567 1566 1566 1565 1565 1566 1566 1567
1554 1552 1550 1548 1547 1545 1545 1544 1544 1544 1544 1544 1544 1545 1546 1546 1547 1548 1550 1552 1553 1554 1555 1557 1559 1559 1561 1562 1563 1565 1566 1567 1568 1568 1568 1568 1567 1566 1565 1565 1565 1565 1566
1554 1551 1549 1546 1544 1543 1542 1540 1539 1539 1539 1539 1540 1540 1542 1543 1543 1544 1545 1547 1549 1551 1552 1553 1555 1556 1558 1560 1562 1563 1564 1564 1566 1566 1567 1567 1567 1567 1565 1565 1564 1565 1565
1552 1550 1547 1544 1542 1540 1538 1537 1535 1534 1534 1534 1534 1535 1536 1538 1539 1540 1541 1543 1545 1546 1548 1550 1552 1554 1556 1558 1559 1560 1561 1562 1563 1564 1565 1566 1566 1565 1566 1564 1564 1564 1564
1550 1547 1545 1542 1539 1536 1535 1533 1531 1530 1529 1529 1529 1529 1531 1532 1534 1535 1536 1538 1540 1541 1543 1545 1548 1550 1552 1554 1556 1558 1559 1560 1561 1562 1563 1564 1564 1565 1565 1565 1564 1564 1564
1548 1545 1542 1539 1536 1533 1531 1529 1527 1526 1524 1524 1524 1524 1525 1527 1528 1529 1530 1532 1534 1536 1538 1540 1543 1546 1548 1551 1553 1555 1556 1556 1558 1559 1560 1561 1562 1563 1563 1563 1564 1564 1564
1545 1541 1539 1536 1532 1530 1527 1524 1523 1521 1519 1519 1518 1519 1519 1520 1522 1523 1525 1526 1529 1531 1533 1535 1538 1541 1543 1546 1549 1551 1552 1554 1553 1555 1556 1558 1559 1560 1561 1562 1563 1563 1564
1542 1538 1535 1531 1528 1526 1523 1520 1518 1516 1515 1514 1513 1513 1513 1514 1515 1517 1519 1521 1523 1525 1528 1530 1532 1535 1538 1541 1544 1547 1548 1549 1550 1551 1552 1554 1555 1557 1558 1560 1561 1561 1562
1539 1535 1531 1528 1525 1522 1519 1517 1514 1513 1511 1510 1508 1508 1507 1508 1509 1511 1513 1515 1517 1519 1522 1525 1527 1529 1533 1535 1538 1541 1543 1545 1547 1547 1549 1550 1552 1553 1555 1556 1558 1559 1560
1536 1532 1528 1524 1522 1519 1516 1513 1511 1509 1508 1506 1504 1503 1503 1503 1504 1505 1507 1509 1511 1514 1516 1519 1521 1524 1527 1529 1532 1534 1537 1539 1542 1544 1545 1546 1548 1549 1551 1553 1554 1556 1557
1535 1530 1526 1523 1520 1517 1514 1511 1509 1507 1505 1503 1501 1500 1500 1499 1500 1501 1502 1504 1506 1508 1511 1513 1516 1518 1521 1524 1526 1528 1531 1533 1536 1539 1541 1542 1544 1546 1547 1548 1550 1552 1553